{"data":{"norad_id":65513,"intl_designator":"2025-198X","name":"STARLINK-35019","alt_names":[],"object_type":"PAYLOAD","status":"ACTIVE","operator":null,"country":"US","launch_date":"2025-09-05","launch_site_code":"AFETR","launch_vehicle":null,"mission":null,"orbit_class":"UNKNOWN","rcs_meters":null,"size_class":null,"mass_kg":null,"dimensions":null,"purposes":["comms"],"wikipedia_slug":null,"has_3d_model":false,"image_url":null,"decayed_at":null,"tle_current":{"epoch":"2026-09-20T21:00:43.089408Z","epoch_age_seconds":79629,"freshness":"FRESH","line1":"1 65513U 25198X   26263.87549872  .00017023  00000+0  51368-3 0  9992","line2":"2 65513  53.1612  80.1400 0001497 234.5897 125.4966 15.34407344 58564","mean_motion":15.34407344,"eccentricity":0.0001497,"inclination_deg":53.1612,"raan_deg":80.14,"arg_perigee_deg":234.5897,"mean_anomaly_deg":125.4966,"bstar":0.00051368,"rev_number":5856,"period_min":93.847308905998,"perigee_km":461.65734186215,"apogee_km":463.70548289482,"semimajor_km":6840.8184123785,"source":"CELESTRAK","updated_at":"2026-09-21T09:00:35.645707Z"}}}